Year,Month,Day,Hour,Minute,Value (Times are PST for temperature in C)
2020,03,16,00,00,2.70
2020,03,16,00,01,2.70
2020,03,16,00,02,2.70
2020,03,16,00,03,2.70
2020,03,16,00,04,2.70
2020,03,16,00,05,2.60
2020,03,16,00,06,2.60
2020,03,16,00,07,2.60
2020,03,16,00,08,2.60
2020,03,16,00,09,2.60
2020,03,16,00,10,2.60
2020,03,16,00,11,2.60
2020,03,16,00,12,2.60
2020,03,16,00,13,2.60
2020,03,16,00,14,2.60
2020,03,16,00,15,2.60
2020,03,16,00,16,2.60
2020,03,16,00,17,2.60
2020,03,16,00,18,2.60
2020,03,16,00,19,2.50
2020,03,16,00,20,2.50
2020,03,16,00,21,2.50
2020,03,16,00,22,2.50
2020,03,16,00,23,2.50
2020,03,16,00,24,2.50
2020,03,16,00,25,2.50
2020,03,16,00,26,2.40
2020,03,16,00,27,2.40
2020,03,16,00,28,2.40
2020,03,16,00,29,2.40
2020,03,16,00,30,2.50
2020,03,16,00,31,2.50
2020,03,16,00,32,2.50
2020,03,16,00,33,2.40
2020,03,16,00,34,2.40
2020,03,16,00,35,2.40
2020,03,16,00,36,2.40
2020,03,16,00,37,2.50
2020,03,16,00,38,2.50
2020,03,16,00,39,2.40
2020,03,16,00,40,2.50
2020,03,16,00,41,2.40
2020,03,16,00,42,2.40
2020,03,16,00,43,2.40
2020,03,16,00,44,2.30
2020,03,16,00,45,2.30
2020,03,16,00,46,2.30
2020,03,16,00,47,2.20
2020,03,16,00,48,2.20
2020,03,16,00,49,2.20
2020,03,16,00,50,2.20
2020,03,16,00,51,2.10
2020,03,16,00,52,2.10
2020,03,16,00,53,2.10
2020,03,16,00,54,2.00
2020,03,16,00,55,2.00
2020,03,16,00,56,2.00
2020,03,16,00,57,2.00
2020,03,16,00,58,2.00
2020,03,16,00,59,2.00
2020,03,16,01,00,2.00
2020,03,16,01,01,2.00
2020,03,16,01,02,2.00
2020,03,16,01,03,2.00
2020,03,16,01,04,2.00
2020,03,16,01,05,2.00
2020,03,16,01,06,2.00
2020,03,16,01,07,2.10
2020,03,16,01,08,2.10
2020,03,16,01,09,2.10
2020,03,16,01,10,2.20
2020,03,16,01,11,2.20
2020,03,16,01,12,2.30
2020,03,16,01,13,2.30
2020,03,16,01,14,2.30
2020,03,16,01,15,2.30
2020,03,16,01,16,2.30
2020,03,16,01,17,2.20
2020,03,16,01,18,2.20
2020,03,16,01,19,2.20
2020,03,16,01,20,2.20
2020,03,16,01,21,2.20
2020,03,16,01,22,2.20
2020,03,16,01,23,2.20
2020,03,16,01,24,2.20
2020,03,16,01,25,2.20
2020,03,16,01,26,2.20
2020,03,16,01,27,2.20
2020,03,16,01,28,2.10
2020,03,16,01,29,2.20
2020,03,16,01,30,2.10
2020,03,16,01,31,2.10
2020,03,16,01,32,2.10
2020,03,16,01,33,2.10
2020,03,16,01,34,2.10
2020,03,16,01,35,2.10
2020,03,16,01,36,2.10
2020,03,16,01,37,2.10
2020,03,16,01,38,2.10
2020,03,16,01,39,2.10
2020,03,16,01,40,2.10
2020,03,16,01,41,2.10
2020,03,16,01,42,2.10
2020,03,16,01,43,2.10
2020,03,16,01,44,2.10
2020,03,16,01,45,2.00
2020,03,16,01,46,2.00
2020,03,16,01,47,1.90
2020,03,16,01,48,1.90
2020,03,16,01,49,1.80
2020,03,16,01,50,1.70
2020,03,16,01,51,1.70
2020,03,16,01,52,1.60
2020,03,16,01,53,1.60
2020,03,16,01,54,1.60
2020,03,16,01,55,1.60
2020,03,16,01,56,1.60
2020,03,16,01,57,1.60
2020,03,16,01,58,1.60
2020,03,16,01,59,1.70
2020,03,16,02,00,1.70
2020,03,16,02,01,1.70
2020,03,16,02,02,1.70
2020,03,16,02,03,1.70
2020,03,16,02,04,1.70
2020,03,16,02,05,1.70
2020,03,16,02,06,1.70
2020,03,16,02,07,1.70
2020,03,16,02,08,1.80
2020,03,16,02,09,1.80
2020,03,16,02,10,1.80
2020,03,16,02,11,1.80
2020,03,16,02,12,1.80
2020,03,16,02,13,1.80
2020,03,16,02,14,1.80
2020,03,16,02,15,1.80
2020,03,16,02,16,1.80
2020,03,16,02,17,1.80
2020,03,16,02,18,1.80
2020,03,16,02,19,1.70
2020,03,16,02,20,1.70
2020,03,16,02,21,1.70
2020,03,16,02,22,1.70
2020,03,16,02,23,1.70
2020,03,16,02,24,1.60
2020,03,16,02,25,1.60
2020,03,16,02,26,1.60
2020,03,16,02,27,1.60
2020,03,16,02,28,1.60
2020,03,16,02,29,1.60
2020,03,16,02,30,1.60
2020,03,16,02,31,1.60
2020,03,16,02,32,1.60
2020,03,16,02,33,1.60
2020,03,16,02,34,1.60
2020,03,16,02,35,1.60
2020,03,16,02,36,1.60
2020,03,16,02,37,1.60
2020,03,16,02,38,1.60
2020,03,16,02,39,1.60
2020,03,16,02,40,1.70
2020,03,16,02,41,1.70
2020,03,16,02,42,1.70
2020,03,16,02,43,1.70
2020,03,16,02,44,1.60
2020,03,16,02,45,1.60
2020,03,16,02,46,1.60
2020,03,16,02,47,1.50
2020,03,16,02,48,1.50
2020,03,16,02,49,1.50
2020,03,16,02,50,1.40
2020,03,16,02,51,1.40
2020,03,16,02,52,1.40
2020,03,16,02,53,1.40
2020,03,16,02,54,1.40
2020,03,16,02,55,1.40
2020,03,16,02,56,1.30
2020,03,16,02,57,1.30
2020,03,16,02,58,1.30
2020,03,16,02,59,1.20
2020,03,16,03,00,1.20
2020,03,16,03,01,1.20
2020,03,16,03,02,1.20
2020,03,16,03,03,1.20
2020,03,16,03,04,1.20
2020,03,16,03,05,1.20
2020,03,16,03,06,1.20
2020,03,16,03,07,1.20
2020,03,16,03,08,1.20
2020,03,16,03,09,1.20
2020,03,16,03,10,1.20
2020,03,16,03,11,1.20
2020,03,16,03,12,1.10
2020,03,16,03,13,1.10
2020,03,16,03,14,1.10
2020,03,16,03,15,1.10
2020,03,16,03,16,1.20
2020,03,16,03,17,1.20
2020,03,16,03,18,1.20
2020,03,16,03,19,1.20
2020,03,16,03,20,1.20
2020,03,16,03,21,1.20
2020,03,16,03,22,1.10
2020,03,16,03,23,1.10
2020,03,16,03,24,1.00
2020,03,16,03,25,1.00
2020,03,16,03,26,0.90
2020,03,16,03,27,0.90
2020,03,16,03,28,0.90
2020,03,16,03,29,0.90
2020,03,16,03,30,0.90
2020,03,16,03,31,1.00
2020,03,16,03,32,1.00
2020,03,16,03,33,1.00
2020,03,16,03,34,1.00
2020,03,16,03,35,1.10
2020,03,16,03,36,1.10
2020,03,16,03,37,1.10
2020,03,16,03,38,1.00
2020,03,16,03,39,1.00
2020,03,16,03,40,1.00
2020,03,16,03,41,1.00
2020,03,16,03,42,1.00
2020,03,16,03,43,1.00
2020,03,16,03,44,1.00
2020,03,16,03,45,1.00
2020,03,16,03,46,1.10
2020,03,16,03,47,1.00
2020,03,16,03,48,1.00
2020,03,16,03,49,1.00
2020,03,16,03,50,1.10
2020,03,16,03,51,1.10
2020,03,16,03,52,1.20
2020,03,16,03,53,1.20
2020,03,16,03,54,1.20
2020,03,16,03,55,1.20
2020,03,16,03,56,1.20
2020,03,16,03,57,1.30
2020,03,16,03,58,1.20
2020,03,16,03,59,1.20
2020,03,16,04,00,1.20
2020,03,16,04,01,1.20
2020,03,16,04,02,1.20
2020,03,16,04,03,1.20
2020,03,16,04,04,1.20
2020,03,16,04,05,1.10
2020,03,16,04,06,1.10
2020,03,16,04,07,1.10
2020,03,16,04,08,1.10
2020,03,16,04,09,1.00
2020,03,16,04,10,0.90
2020,03,16,04,11,0.90
2020,03,16,04,12,0.80
2020,03,16,04,13,0.70
2020,03,16,04,14,0.60
2020,03,16,04,15,0.50
2020,03,16,04,16,0.30
2020,03,16,04,17,0.30
2020,03,16,04,18,0.20
2020,03,16,04,19,0.20
2020,03,16,04,20,0.20
2020,03,16,04,21,0.10
2020,03,16,04,22,0.10
2020,03,16,04,23,0.10
2020,03,16,04,24,0.10
2020,03,16,04,25,0.20
2020,03,16,04,26,0.20
2020,03,16,04,27,0.20
2020,03,16,04,28,0.30
2020,03,16,04,29,0.30
2020,03,16,04,30,0.30
2020,03,16,04,31,0.30
2020,03,16,04,32,0.40
2020,03,16,04,33,0.40
2020,03,16,04,34,0.40
2020,03,16,04,35,0.40
2020,03,16,04,36,0.40
2020,03,16,04,37,0.40
2020,03,16,04,38,0.40
2020,03,16,04,39,0.40
2020,03,16,04,40,0.40
2020,03,16,04,41,0.40
2020,03,16,04,42,0.40
2020,03,16,04,43,0.40
2020,03,16,04,44,0.40
2020,03,16,04,45,0.40
2020,03,16,04,46,0.40
2020,03,16,04,47,0.30
2020,03,16,04,48,0.30
2020,03,16,04,49,0.30
2020,03,16,04,50,0.30
2020,03,16,04,51,0.30
2020,03,16,04,52,0.30
2020,03,16,04,53,0.40
2020,03,16,04,54,0.40
2020,03,16,04,55,0.40
2020,03,16,04,56,0.40
2020,03,16,04,57,0.40
2020,03,16,04,58,0.40
2020,03,16,04,59,0.40
2020,03,16,05,00,0.40
2020,03,16,05,01,0.40
2020,03,16,05,02,0.30
2020,03,16,05,03,0.30
2020,03,16,05,04,0.30
2020,03,16,05,05,0.30
2020,03,16,05,06,0.30
2020,03,16,05,07,0.40
2020,03,16,05,08,0.40
2020,03,16,05,09,0.30
2020,03,16,05,10,0.30
2020,03,16,05,11,0.30
2020,03,16,05,12,0.40
2020,03,16,05,13,0.40
2020,03,16,05,14,0.40
2020,03,16,05,15,0.40
2020,03,16,05,16,0.50
2020,03,16,05,17,0.50
2020,03,16,05,18,0.50
2020,03,16,05,19,0.40
2020,03,16,05,20,0.40
2020,03,16,05,21,0.40
2020,03,16,05,22,0.40
2020,03,16,05,23,0.40
2020,03,16,05,24,0.40
2020,03,16,05,25,0.40
2020,03,16,05,26,0.40
2020,03,16,05,27,0.40
2020,03,16,05,28,0.50
2020,03,16,05,29,0.50
2020,03,16,05,30,0.50
2020,03,16,05,31,0.50
2020,03,16,05,32,0.50
2020,03,16,05,33,0.50
2020,03,16,05,34,0.50
2020,03,16,05,35,0.40
2020,03,16,05,36,0.40
2020,03,16,05,37,0.40
2020,03,16,05,38,0.40
2020,03,16,05,39,0.50
2020,03,16,05,40,0.50
2020,03,16,05,41,0.50
2020,03,16,05,42,0.50
2020,03,16,05,43,0.50
2020,03,16,05,44,0.40
2020,03,16,05,45,0.40
2020,03,16,05,46,0.40
2020,03,16,05,47,0.30
2020,03,16,05,48,0.30
2020,03,16,05,49,0.30
2020,03,16,05,50,0.30
2020,03,16,05,51,0.30
2020,03,16,05,52,0.30
2020,03,16,05,53,0.20
2020,03,16,05,54,0.20
2020,03,16,05,55,0.20
2020,03,16,05,56,0.20
2020,03,16,05,57,0.10
2020,03,16,05,58,0.10
2020,03,16,05,59,0.10
2020,03,16,06,00,0.10
2020,03,16,06,01,0.10
2020,03,16,06,02,0.00
2020,03,16,06,03,0.00
2020,03,16,06,04,0.00
2020,03,16,06,05,-0.10
2020,03,16,06,06,-0.10
2020,03,16,06,07,-0.10
2020,03,16,06,08,-0.10
2020,03,16,06,09,-0.10
2020,03,16,06,10,-0.10
2020,03,16,06,11,-0.10
2020,03,16,06,12,-0.20
2020,03,16,06,13,-0.20
2020,03,16,06,14,-0.20
2020,03,16,06,15,-0.10
2020,03,16,06,16,-0.10
2020,03,16,06,17,-0.10
2020,03,16,06,18,-0.10
2020,03,16,06,19,-0.10
2020,03,16,06,20,0.00
2020,03,16,06,21,0.10
2020,03,16,06,22,0.20
2020,03,16,06,23,0.20
2020,03,16,06,24,0.20
2020,03,16,06,25,0.30
2020,03,16,06,26,0.30
2020,03,16,06,27,0.20
2020,03,16,06,28,0.20
2020,03,16,06,29,0.30
2020,03,16,06,30,0.30
2020,03,16,06,31,0.30
2020,03,16,06,32,0.40
2020,03,16,06,33,0.40
2020,03,16,06,34,0.40
2020,03,16,06,35,0.40
2020,03,16,06,36,0.40
2020,03,16,06,37,0.40
2020,03,16,06,38,0.40
2020,03,16,06,39,0.50
2020,03,16,06,40,0.40
2020,03,16,06,41,0.40
2020,03,16,06,42,0.40
2020,03,16,06,43,0.40
2020,03,16,06,44,0.40
2020,03,16,06,45,0.40
2020,03,16,06,46,0.40
2020,03,16,06,47,0.30
2020,03,16,06,48,0.30
2020,03,16,06,49,0.30
2020,03,16,06,50,0.30
2020,03,16,06,51,0.30
2020,03,16,06,52,0.30
2020,03,16,06,53,0.30
2020,03,16,06,54,0.30
2020,03,16,06,55,0.30
2020,03,16,06,56,0.30
2020,03,16,06,57,0.30
2020,03,16,06,58,0.30
2020,03,16,06,59,0.30
2020,03,16,07,00,0.30
2020,03,16,07,01,0.30
2020,03,16,07,02,0.40
2020,03,16,07,03,0.40
2020,03,16,07,04,0.40
2020,03,16,07,05,0.40
2020,03,16,07,06,0.40
2020,03,16,07,07,0.40
2020,03,16,07,08,0.30
2020,03,16,07,09,0.30
2020,03,16,07,10,0.30
2020,03,16,07,11,0.30
2020,03,16,07,12,0.30
2020,03,16,07,13,0.30
2020,03,16,07,14,0.30
2020,03,16,07,15,0.30
2020,03,16,07,16,0.30
2020,03,16,07,17,0.30
2020,03,16,07,18,0.30
2020,03,16,07,19,0.20
2020,03,16,07,20,0.30
2020,03,16,07,21,0.30
2020,03,16,07,22,0.30
2020,03,16,07,23,0.30
2020,03,16,07,24,0.30
2020,03,16,07,25,0.30
2020,03,16,07,26,0.30
2020,03,16,07,27,0.20
2020,03,16,07,28,0.20
2020,03,16,07,29,0.20
2020,03,16,07,30,0.20
2020,03,16,07,31,0.20
2020,03,16,07,32,0.30
2020,03,16,07,33,0.30
2020,03,16,07,34,0.30
2020,03,16,07,35,0.30
2020,03,16,07,36,0.30
2020,03,16,07,37,0.30
2020,03,16,07,38,0.20
2020,03,16,07,39,0.20
2020,03,16,07,40,0.10
2020,03,16,07,41,0.10
2020,03,16,07,42,0.00
2020,03,16,07,43,0.00
2020,03,16,07,44,0.00
2020,03,16,07,45,-0.10
2020,03,16,07,46,-0.20
2020,03,16,07,47,-0.20
2020,03,16,07,48,-0.20
2020,03,16,07,49,-0.30
2020,03,16,07,50,-0.30
2020,03,16,07,51,-0.30
2020,03,16,07,52,-0.20
2020,03,16,07,53,-0.10
2020,03,16,07,54,-0.10
2020,03,16,07,55,0.00
2020,03,16,07,56,0.00
2020,03,16,07,57,0.00
2020,03,16,07,58,0.00
2020,03,16,07,59,0.10
2020,03,16,08,00,0.10
2020,03,16,08,01,0.20
2020,03,16,08,02,0.30
2020,03,16,08,03,0.30
2020,03,16,08,04,0.40
2020,03,16,08,05,0.50
2020,03,16,08,06,0.50
2020,03,16,08,07,0.60
2020,03,16,08,08,0.60
2020,03,16,08,09,0.70
2020,03,16,08,10,0.70
2020,03,16,08,11,0.70
2020,03,16,08,12,0.80
2020,03,16,08,13,0.80
2020,03,16,08,14,0.80
2020,03,16,08,15,0.80
2020,03,16,08,16,0.80
2020,03,16,08,17,0.90
2020,03,16,08,18,0.90
2020,03,16,08,19,0.90
2020,03,16,08,20,0.90
2020,03,16,08,21,0.90
2020,03,16,08,22,0.90
2020,03,16,08,23,0.90
2020,03,16,08,24,1.00
2020,03,16,08,25,1.00
2020,03,16,08,26,1.00
2020,03,16,08,27,1.10
2020,03,16,08,28,1.10
2020,03,16,08,29,1.10
2020,03,16,08,30,1.10
2020,03,16,08,31,1.10
2020,03,16,08,32,1.20
2020,03,16,08,33,1.20
2020,03,16,08,34,1.20
2020,03,16,08,35,1.30
2020,03,16,08,36,1.30
2020,03,16,08,37,1.30
2020,03,16,08,38,1.40
2020,03,16,08,39,1.40
2020,03,16,08,40,1.50
2020,03,16,08,41,1.50
2020,03,16,08,42,1.50
2020,03,16,08,43,1.60
2020,03,16,08,44,1.60
2020,03,16,08,45,1.70
2020,03,16,08,46,1.70
2020,03,16,08,47,1.70
2020,03,16,08,48,1.70
2020,03,16,08,49,1.70
2020,03,16,08,50,1.80
2020,03,16,08,51,1.80
2020,03,16,08,52,1.80
2020,03,16,08,53,1.80
2020,03,16,08,54,1.90
2020,03,16,08,55,1.90
2020,03,16,08,56,2.00
2020,03,16,08,57,2.00
2020,03,16,08,58,2.00
2020,03,16,08,59,2.10
2020,03,16,09,00,2.10
2020,03,16,09,01,2.10
2020,03,16,09,02,2.20
2020,03,16,09,03,2.20
2020,03,16,09,04,2.20
2020,03,16,09,05,2.30
2020,03,16,09,06,2.30
2020,03,16,09,07,2.30
2020,03,16,09,08,2.40
2020,03,16,09,09,2.40
2020,03,16,09,10,2.40
2020,03,16,09,11,2.50
2020,03,16,09,12,2.50
2020,03,16,09,13,2.60
2020,03,16,09,14,2.60
2020,03,16,09,15,2.70
2020,03,16,09,16,2.70
2020,03,16,09,17,2.70
2020,03,16,09,18,2.80
2020,03,16,09,19,2.80
2020,03,16,09,20,2.90
2020,03,16,09,21,3.00
2020,03,16,09,22,3.10
2020,03,16,09,23,3.20
2020,03,16,09,24,3.30
2020,03,16,09,25,3.50
2020,03,16,09,26,3.50
2020,03,16,09,27,3.60
2020,03,16,09,28,3.70
2020,03,16,09,29,3.70
2020,03,16,09,30,3.70
2020,03,16,09,31,3.80
2020,03,16,09,32,3.80
2020,03,16,09,33,3.80
2020,03,16,09,34,3.90
2020,03,16,09,35,4.00
2020,03,16,09,36,4.00
2020,03,16,09,37,4.10
2020,03,16,09,38,4.10
2020,03,16,09,39,4.20
2020,03,16,09,40,4.20
2020,03,16,09,41,4.20
2020,03,16,09,42,4.30
2020,03,16,09,43,4.30
2020,03,16,09,44,4.30
2020,03,16,09,45,4.30
2020,03,16,09,46,4.30
2020,03,16,09,47,4.30
2020,03,16,09,48,4.30
2020,03,16,09,49,4.30
2020,03,16,09,50,4.30
2020,03,16,09,51,4.30
2020,03,16,09,52,4.30
2020,03,16,09,53,4.30
2020,03,16,09,54,4.30
2020,03,16,09,55,4.30
2020,03,16,09,56,4.30
2020,03,16,09,57,4.30
2020,03,16,09,58,4.40
2020,03,16,09,59,4.40
2020,03,16,10,00,4.40
2020,03,16,10,01,4.40
2020,03,16,10,02,4.50
2020,03,16,10,03,4.60
2020,03,16,10,04,4.60
2020,03,16,10,05,4.70
2020,03,16,10,06,4.70
2020,03,16,10,07,4.80
2020,03,16,10,08,4.80
2020,03,16,10,09,4.90
2020,03,16,10,10,4.90
2020,03,16,10,11,5.00
2020,03,16,10,12,5.10
2020,03,16,10,13,5.10
2020,03,16,10,14,5.10
2020,03,16,10,15,5.10
2020,03,16,10,16,5.10
2020,03,16,10,17,5.20
2020,03,16,10,18,5.20
2020,03,16,10,19,5.30
2020,03,16,10,20,5.30
2020,03,16,10,21,5.40
2020,03,16,10,22,5.50
2020,03,16,10,23,5.60
2020,03,16,10,24,5.70
2020,03,16,10,25,5.80
2020,03,16,10,26,6.00
2020,03,16,10,27,6.10
2020,03,16,10,28,6.10
2020,03,16,10,29,6.20
2020,03,16,10,30,6.30
2020,03,16,10,31,6.30
2020,03,16,10,32,6.50
2020,03,16,10,33,6.60
2020,03,16,10,34,6.70
2020,03,16,10,35,6.80
2020,03,16,10,36,6.80
2020,03,16,10,37,6.90
2020,03,16,10,38,6.90
2020,03,16,10,39,7.00
2020,03,16,10,40,7.00
2020,03,16,10,41,7.10
2020,03,16,10,42,7.20
2020,03,16,10,43,7.20
2020,03,16,10,44,7.30
2020,03,16,10,45,7.40
2020,03,16,10,46,7.40
2020,03,16,10,47,7.40
2020,03,16,10,48,7.40
2020,03,16,10,49,7.50
2020,03,16,10,50,7.50
2020,03,16,10,51,7.50
2020,03,16,10,52,7.60
2020,03,16,10,53,7.60
2020,03,16,10,54,7.60
2020,03,16,10,55,7.70
2020,03,16,10,56,7.70
2020,03,16,10,57,7.80
2020,03,16,10,58,7.90
2020,03,16,10,59,8.00
2020,03,16,11,00,8.00
2020,03,16,11,01,8.10
2020,03,16,11,02,8.00
2020,03,16,11,03,7.90
2020,03,16,11,04,7.90
2020,03,16,11,05,7.90
2020,03,16,11,06,7.90
2020,03,16,11,07,7.90
2020,03,16,11,08,7.80
2020,03,16,11,09,7.80
2020,03,16,11,10,7.80
2020,03,16,11,11,7.80
2020,03,16,11,12,7.80
2020,03,16,11,13,7.80
2020,03,16,11,14,7.90
2020,03,16,11,15,8.00
2020,03,16,11,16,8.10
2020,03,16,11,17,8.20
2020,03,16,11,18,8.20
2020,03,16,11,19,8.10
2020,03,16,11,20,8.10
2020,03,16,11,21,8.20
2020,03,16,11,22,8.30
2020,03,16,11,23,8.40
2020,03,16,11,24,8.50
2020,03,16,11,25,8.50
2020,03,16,11,26,8.50
2020,03,16,11,27,8.50
2020,03,16,11,28,8.50
2020,03,16,11,29,8.60
2020,03,16,11,30,8.60
2020,03,16,11,31,8.60
2020,03,16,11,32,8.60
2020,03,16,11,33,8.60
2020,03,16,11,34,8.60
2020,03,16,11,35,8.60
2020,03,16,11,36,8.60
2020,03,16,11,37,8.50
2020,03,16,11,38,8.40
2020,03,16,11,39,8.40
2020,03,16,11,40,8.30
2020,03,16,11,41,8.30
2020,03,16,11,42,8.40
2020,03,16,11,43,8.40
2020,03,16,11,44,8.50
2020,03,16,11,45,8.60
2020,03,16,11,46,8.60
2020,03,16,11,47,8.60
2020,03,16,11,48,8.50
2020,03,16,11,49,8.50
2020,03,16,11,50,8.60
2020,03,16,11,51,8.70
2020,03,16,11,52,8.60
2020,03,16,11,53,8.60
2020,03,16,11,54,8.50
2020,03,16,11,55,8.50
2020,03,16,11,56,8.50
2020,03,16,11,57,8.40
2020,03,16,11,58,8.40
2020,03,16,11,59,8.30
2020,03,16,12,00,8.30
2020,03,16,12,01,8.40
2020,03,16,12,02,8.50
2020,03,16,12,03,8.60
2020,03,16,12,04,8.70
2020,03,16,12,05,8.70
2020,03,16,12,06,8.60
2020,03,16,12,07,8.60
2020,03,16,12,08,8.60
2020,03,16,12,09,8.60
2020,03,16,12,10,8.70
2020,03,16,12,11,8.70
2020,03,16,12,12,8.80
2020,03,16,12,13,8.90
2020,03,16,12,14,9.10
2020,03,16,12,15,9.20
2020,03,16,12,16,9.20
2020,03,16,12,17,9.20
2020,03,16,12,18,9.10
2020,03,16,12,19,9.00
2020,03,16,12,20,8.90
2020,03,16,12,21,8.70
2020,03,16,12,22,8.50
2020,03,16,12,23,8.30
2020,03,16,12,24,8.30
2020,03,16,12,25,8.20
2020,03,16,12,26,8.10
2020,03,16,12,27,8.10
2020,03,16,12,28,8.00
2020,03,16,12,29,7.90
2020,03,16,12,30,7.80
2020,03,16,12,31,7.80
2020,03,16,12,32,7.90
2020,03,16,12,33,7.80
2020,03,16,12,34,7.90
2020,03,16,12,35,7.80
2020,03,16,12,36,7.80
2020,03,16,12,37,7.80
2020,03,16,12,38,7.70
2020,03,16,12,39,7.70
2020,03,16,12,40,7.70
2020,03,16,12,41,7.70
2020,03,16,12,42,7.70
2020,03,16,12,43,7.70
2020,03,16,12,44,7.80
2020,03,16,12,45,7.80
2020,03,16,12,46,7.80
2020,03,16,12,47,8.00
2020,03,16,12,48,8.00
2020,03,16,12,49,8.00
2020,03,16,12,50,8.10
2020,03,16,12,51,8.10
2020,03,16,12,52,8.10
2020,03,16,12,53,8.20
2020,03,16,12,54,8.10
2020,03,16,12,55,8.10
2020,03,16,12,56,8.10
2020,03,16,12,57,8.00
2020,03,16,12,58,7.90
2020,03,16,12,59,7.90
2020,03,16,13,00,7.90
2020,03,16,13,01,8.10
2020,03,16,13,02,8.20
2020,03,16,13,03,8.30
2020,03,16,13,04,8.40
2020,03,16,13,05,8.30
2020,03,16,13,06,8.30
2020,03,16,13,07,8.30
2020,03,16,13,08,8.30
2020,03,16,13,09,8.30
2020,03,16,13,10,8.30
2020,03,16,13,11,8.30
2020,03,16,13,12,8.30
2020,03,16,13,13,8.30
2020,03,16,13,14,8.30
2020,03,16,13,15,8.40
2020,03,16,13,16,8.50
2020,03,16,13,17,8.60
2020,03,16,13,18,8.60
2020,03,16,13,19,8.70
2020,03,16,13,20,8.80
2020,03,16,13,21,8.80
2020,03,16,13,22,8.80
2020,03,16,13,23,8.70
2020,03,16,13,24,8.80
2020,03,16,13,25,8.80
2020,03,16,13,26,8.80
2020,03,16,13,27,8.70
2020,03,16,13,28,8.50
2020,03,16,13,29,8.40
2020,03,16,13,30,8.40
2020,03,16,13,31,8.50
2020,03,16,13,32,8.60
2020,03,16,13,33,8.60
2020,03,16,13,34,8.50
2020,03,16,13,35,8.40
2020,03,16,13,36,8.30
2020,03,16,13,37,8.20
2020,03,16,13,38,8.20
2020,03,16,13,39,8.20
2020,03,16,13,40,8.10
2020,03,16,13,41,8.10
2020,03,16,13,42,8.00
2020,03,16,13,43,7.90
2020,03,16,13,44,7.80
2020,03,16,13,45,7.80
2020,03,16,13,46,7.80
2020,03,16,13,47,7.80
2020,03,16,13,48,7.70
2020,03,16,13,49,7.70
2020,03,16,13,50,7.70
2020,03,16,13,51,7.70
2020,03,16,13,52,7.70
2020,03,16,13,53,7.70
2020,03,16,13,54,7.70
2020,03,16,13,55,7.60
2020,03,16,13,56,7.70
2020,03,16,13,57,7.80
2020,03,16,13,58,7.90
2020,03,16,13,59,8.00
2020,03,16,14,00,8.10
2020,03,16,14,01,8.10
2020,03,16,14,02,8.00
2020,03,16,14,03,8.00
2020,03,16,14,04,8.10
2020,03,16,14,05,8.10
2020,03,16,14,06,8.10
2020,03,16,14,07,8.10
2020,03,16,14,08,8.10
2020,03,16,14,09,8.20
2020,03,16,14,10,8.10
2020,03,16,14,11,8.00
2020,03,16,14,12,7.90
2020,03,16,14,13,7.90
2020,03,16,14,14,7.90
2020,03,16,14,15,7.90
2020,03,16,14,16,7.90
2020,03,16,14,17,7.80
2020,03,16,14,18,7.60
2020,03,16,14,19,7.40
2020,03,16,14,20,7.30
2020,03,16,14,21,7.40
2020,03,16,14,22,7.60
2020,03,16,14,23,7.60
2020,03,16,14,24,7.60
2020,03,16,14,25,7.70
2020,03,16,14,26,7.80
2020,03,16,14,27,7.80
2020,03,16,14,28,7.90
2020,03,16,14,29,7.90
2020,03,16,14,30,8.00
2020,03,16,14,31,8.10
2020,03,16,14,32,8.10
2020,03,16,14,33,8.10
2020,03,16,14,34,8.10
2020,03,16,14,35,8.20
2020,03,16,14,36,8.20
2020,03,16,14,37,8.30
2020,03,16,14,38,8.30
2020,03,16,14,39,8.20
2020,03,16,14,40,8.20
2020,03,16,14,41,8.30
2020,03,16,14,42,8.30
2020,03,16,14,43,8.30
2020,03,16,14,44,8.30
2020,03,16,14,45,8.30
2020,03,16,14,46,8.30
2020,03,16,14,47,8.40
2020,03,16,14,48,8.60
2020,03,16,14,49,8.70
2020,03,16,14,50,8.70
2020,03,16,14,51,8.80
2020,03,16,14,52,8.80
2020,03,16,14,53,8.80
2020,03,16,14,54,8.70
2020,03,16,14,55,8.60
2020,03,16,14,56,8.60
2020,03,16,14,57,8.60
2020,03,16,14,58,8.60
2020,03,16,14,59,8.70
2020,03,16,15,00,8.80
2020,03,16,15,01,8.90
2020,03,16,15,02,8.80
2020,03,16,15,03,8.80
2020,03,16,15,04,8.80
2020,03,16,15,05,8.80
2020,03,16,15,06,8.80
2020,03,16,15,07,8.80
2020,03,16,15,08,8.90
2020,03,16,15,09,8.90
2020,03,16,15,10,9.00
2020,03,16,15,11,9.10
2020,03,16,15,12,9.20
2020,03,16,15,13,9.20
2020,03,16,15,14,9.30
2020,03,16,15,15,9.30
2020,03,16,15,16,9.40
2020,03,16,15,17,9.50
2020,03,16,15,18,9.60
2020,03,16,15,19,9.60
2020,03,16,15,20,9.70
2020,03,16,15,21,9.80
2020,03,16,15,22,9.80
2020,03,16,15,23,9.80
2020,03,16,15,24,9.80
2020,03,16,15,25,9.90
2020,03,16,15,26,9.90
2020,03,16,15,27,10.00
2020,03,16,15,28,10.00
2020,03,16,15,29,10.10
2020,03,16,15,30,10.10
2020,03,16,15,31,10.10
2020,03,16,15,32,10.20
2020,03,16,15,33,10.20
2020,03,16,15,34,10.30
2020,03,16,15,35,10.30
2020,03,16,15,36,10.40
2020,03,16,15,37,10.40
2020,03,16,15,38,10.40
2020,03,16,15,39,10.40
2020,03,16,15,40,10.40
2020,03,16,15,41,10.50
2020,03,16,15,42,10.50
2020,03,16,15,43,10.50
2020,03,16,15,44,10.60
2020,03,16,15,45,10.70
2020,03,16,15,46,10.70
2020,03,16,15,47,10.70
2020,03,16,15,48,10.60
2020,03,16,15,49,10.60
2020,03,16,15,50,10.60
2020,03,16,15,51,10.60
2020,03,16,15,52,10.60
2020,03,16,15,53,10.60
2020,03,16,15,54,10.60
2020,03,16,15,55,10.60
2020,03,16,15,56,10.60
2020,03,16,15,57,10.50
2020,03,16,15,58,10.50
2020,03,16,15,59,10.50
2020,03,16,16,00,10.50
2020,03,16,16,01,10.50
2020,03,16,16,02,10.50
2020,03,16,16,03,10.50
2020,03,16,16,04,10.40
2020,03,16,16,05,10.40
2020,03,16,16,06,10.40
2020,03,16,16,07,10.40
2020,03,16,16,08,10.40
2020,03,16,16,09,10.40
2020,03,16,16,10,10.40
2020,03,16,16,11,10.40
2020,03,16,16,12,10.50
2020,03,16,16,13,10.50
2020,03,16,16,14,10.50
2020,03,16,16,15,10.60
2020,03,16,16,16,10.60
2020,03,16,16,17,10.70
2020,03,16,16,18,10.70
2020,03,16,16,19,10.80
2020,03,16,16,20,10.80
2020,03,16,16,21,10.90
2020,03,16,16,22,10.90
2020,03,16,16,23,10.90
2020,03,16,16,24,11.00
2020,03,16,16,25,11.00
2020,03,16,16,26,11.00
2020,03,16,16,27,11.10
2020,03,16,16,28,11.10
2020,03,16,16,29,11.20
2020,03,16,16,30,11.20
2020,03,16,16,31,11.20
2020,03,16,16,32,11.20
2020,03,16,16,33,11.20
2020,03,16,16,34,11.20
2020,03,16,16,35,11.30
2020,03,16,16,36,11.30
2020,03,16,16,37,11.40
2020,03,16,16,38,11.40
2020,03,16,16,39,11.50
2020,03,16,16,40,11.50
2020,03,16,16,41,11.60
2020,03,16,16,42,11.60
2020,03,16,16,43,11.60
2020,03,16,16,44,11.60
2020,03,16,16,45,11.60
2020,03,16,16,46,11.60
2020,03,16,16,47,11.60
2020,03,16,16,48,11.60
2020,03,16,16,49,11.60
2020,03,16,16,50,11.60
2020,03,16,16,51,11.60
2020,03,16,16,52,11.70
2020,03,16,16,53,11.70
2020,03,16,16,54,11.80
2020,03,16,16,55,11.80
2020,03,16,16,56,11.80
2020,03,16,16,57,11.80
2020,03,16,16,58,11.90
2020,03,16,16,59,11.90
2020,03,16,17,00,11.90
2020,03,16,17,01,12.00
2020,03,16,17,02,12.10
2020,03,16,17,03,12.20
2020,03,16,17,04,12.20
2020,03,16,17,05,12.30
2020,03,16,17,06,12.30
2020,03,16,17,07,12.40
2020,03,16,17,08,12.40
2020,03,16,17,09,12.40
2020,03,16,17,10,12.40
2020,03,16,17,11,12.40
2020,03,16,17,12,12.50
2020,03,16,17,13,12.50
2020,03,16,17,14,12.50
2020,03,16,17,15,12.40
2020,03,16,17,16,12.40
2020,03,16,17,17,12.30
2020,03,16,17,18,12.30
2020,03,16,17,19,12.30
2020,03,16,17,20,12.40
2020,03,16,17,21,12.40
2020,03,16,17,22,12.50
2020,03,16,17,23,12.50
2020,03,16,17,24,12.50
2020,03,16,17,25,12.50
2020,03,16,17,26,12.40
2020,03,16,17,27,12.40
2020,03,16,17,28,12.30
2020,03,16,17,29,12.30
2020,03,16,17,30,12.30
2020,03,16,17,31,12.40
2020,03,16,17,32,12.40
2020,03,16,17,33,12.40
2020,03,16,17,34,12.40
2020,03,16,17,35,12.40
2020,03,16,17,36,12.40
2020,03,16,17,37,12.40
2020,03,16,17,38,12.40
2020,03,16,17,39,12.40
2020,03,16,17,40,12.40
2020,03,16,17,41,12.40
2020,03,16,17,42,12.50
2020,03,16,17,43,12.40
2020,03,16,17,44,12.50
2020,03,16,17,45,12.50
2020,03,16,17,46,12.50
2020,03,16,17,47,12.50
2020,03,16,17,48,12.50
2020,03,16,17,49,12.50
2020,03,16,17,50,12.50
2020,03,16,17,51,12.50
2020,03,16,17,52,12.50
2020,03,16,17,53,12.50
2020,03,16,17,54,12.50
2020,03,16,17,55,12.50
2020,03,16,17,56,12.40
2020,03,16,17,57,12.40
2020,03,16,17,58,12.40